Regional Weather Roundup
Issued by NWS

Home | Current Version | Previous Version | Graphics & Text | Print | Product List | Glossary On
Versions: 1 2 3 4 5 6 7 8 9 10 11 12 13 14 15 16 17 18 19 20 21 22 23 24 25 26 27 28 29 30 31 32 33 34 35 36 37 38 39 40 41 42 43 44 45 46 47 48 49 50
000
ASUS45 KPSR 030700
RWRAZ

PRELIMINARY ARIZONA REGIONAL HOURLY WEATHER ROUNDUP
NATIONAL WEATHER SERVICE PHOENIX AZ
1200 AM MST TUE MAR 03 2015

NOTE: FAIR INDICATES FEW OR NO CLOUDS BELOW 12,000 FEET WITH NO
SIGNIFICANT WEATHER AND/OR OBSTRUCTIONS TO VISIBILITY.

AZZ001>003-036-030800-
NORTHWEST ARIZONA

CITY           SKY/WX    TMP DP  RH WIND       PRES   REMARKS
KINGMAN        CLEAR     35  32  88 SE6       29.97R WCI  30
$$

AZZ004>008-015-016-018-030800-
NORTH CENTRAL ARIZONA

CITY           SKY/WX    TMP DP  RH WIND       PRES   REMARKS
GRAND CANYON   CLOUDY    29  28  96 SW7       29.96R WCI  22
PRESCOTT       MOCLDY    36  32  85 S5        29.98F WCI  32
FLAGSTAFF      CLOUDY    28  27  93 W9        29.94F WCI  20
PAYSON         CLOUDY    36  34  93 CALM      30.01F
$$

AZZ009>014-017-030800-
NORTHEAST ARIZONA

CITY           SKY/WX    TMP DP  RH WIND       PRES   REMARKS
WINSLOW        NOT AVBL
SAINT JOHNS    CLOUDY   N/A N/A N/A NW7       29.98F
WINDOW ROCK    CLOUDY    33  27  78 SW5       29.97R WCI  29
SHOW LOW       CLOUDY    32  28  86 SW12      30.00S WCI  23
$$

AZZ023-030800-
GREATER PHOENIX AREA

CITY           SKY/WX    TMP DP  RH WIND       PRES   REMARKS
PHOENIX        CLOUDY    52  49  89 E3        29.98F
BUCKEYE        CLOUDY    52  52 100 E9        29.99F
DEER VALLEY    LGT RAIN  49  45  86 NE6       29.98F
SCOTTSDALE     CLOUDY    50  46  86 N3        30.00F
MESA-GATEWAY   MOCLDY    48  46  93 SE5       30.01F
$$

AZZ027-028-030800-
SOUTHWEST MARICOPA COUNTY AND PINAL COUNTY

CITY           SKY/WX    TMP DP  RH WIND       PRES   REMARKS
CASA GRANDE    PTCLDY    46  43  87 N6        29.99S
GILA BEND      MOCLDY    53  49  89 NE5       29.97F
$$

AZZ503-504-507>509-030800-
SOUTHEAST ARIZONA

CITY           SKY/WX    TMP DP  RH WIND       PRES   REMARKS
TUCSON         CLOUDY    52  47  83 N3        29.99F
NOGALES        LGT RAIN  49  46  90 S5        29.98F
SIERRA VISTA   LGT RAIN  46  46 100 N6        29.97F
SAFFORD        LGT RAIN  46  42  86 W7        29.98F
$$

AZZ020-021-025-026-031-030800-
SOUTHWEST ARIZONA

CITY           SKY/WX    TMP DP  RH WIND       PRES   REMARKS
YUMA           CLEAR     56  48  74 E3        29.96F
$$

CAZ031-033-041-043-047-048-061-030800-
SOUTHERN CALIFORNIA

CITY           SKY/WX    TMP DP  RH WIND       PRES   REMARKS
DOWNTOWN L.A.  CLOUDY    54  47  77 CALM      29.98R
L.A. AIRPORT   MOCLDY    52  46  80 E8        29.98S
SAN DIEGO      MOCLDY    55  47  74 NE5       29.99F
BURBANK        CLOUDY    52  44  74 SE5       29.97R
ONTARIO        MOCLDY    50  42  74 CALM      29.98R
RIVERSIDE      CLEAR     47  41  80 SE3       29.99R
PALM SPRINGS   CLEAR     52  41  66 NW5       29.98S
EL CENTRO NAS  PTCLDY    51  42  71 W8        29.95S
IMPERIAL       PTCLDY    52  43  71 W6        29.95S
BLYTHE         PTCLDY    53  45  74 S8        29.95F
$$

NVZ020-UTZ003-030800-
SOUTHERN NEVADA-UTAH

CITY           SKY/WX    TMP DP  RH WIND       PRES   REMARKS
LAS VEGAS      NOT AVBL
SALT LAKE CITY MOCLDY    34  33  96 SE3       29.80R
$$

NMZ009-TXZ055-030800-
NEW MEXICO-WEST TEXAS

CITY           SKY/WX    TMP DP  RH WIND       PRES   REMARKS
ALBUQUERQUE    CLOUDY    42  34  73 N12       29.98S
EL PASO        CLOUDY    58  44  60 SW8       29.94F
$$


........................KEY........................
SKY/WX - SKY CONDITION/WEATHER
TMP    - TEMPERATURE IN FAHRENHEIT
DP     - DEW POINT IN FAHRENHEIT
RH     - RELATIVE HUMIDITY IN PERCENT
WIND   - DIRECTION AND SPEED IN MILES PER HOUR (MPH)
VRB    - VARIABLE WIND DIRECTION
PRES   - MEAN SEA LEVEL PRESSURE IN INCHES OF MERCURY
         F - FALLING PRESSURE   R - RISING PRESSURE
         S - STEADY PRESSURE
VSB    - VISIBILITY IN MILES
HX     - HEAT INDEX IN FAHRENHEIT
WCI    - WIND CHILL INDEX IN FAHRENHEIT
TC     - TEMPERATURE IN CELSIUS WHICH IS ALSO KNOWN AS
         TEMPERATURE IN CENTIGRADE
AFB    - AIR FORCE BASE
         LUKE AFB IS LUKE AIR FORCE BASE
         DAVIS-MONTHAN IS DAVIS-MONTHAN AIR FORCE BASE
NAS    - NAVAL AIR STATION
         EL CENTRO NAS IS EL CENTRO NAVAL AIR STATION
N/A    - NOT AVAILABLE


USA.gov is the U.S. government's official web portal to all federal, state and local government web resources and services.